MONITOR-E/SL-19

导读 | 豆包AI

MONITOR-E/SL-19卫星由独联体(CIS)于2003年6月30日发射,是独联体航天领域的一颗监测类卫星。作为该系列监测卫星的成员,它承担着对地观测或空间环境探测任务,延续了前苏联航天技术积累,为独联体获取空间观测数据、开展空间科学研究提供支持,是独联体独立后航天发射活动的重要组成部分。

基本信息
目录编号:
27840
目录名称:
MONITOR-E/SL-19
国际标识:
2003-031A
轨道中心:
EARTH
卫星名称:
MONITOR-E/SL-19
卫星全名:
--
卫星状态:
在轨 (已飞行8283 天)
发射日期:
2003-06-30 UTC
国别 :
俄罗斯(独联体) (CIS)
星等 :
--
轨道信息
数据来源 国际轨道数据 AOE轨道数据
星历时间 2026-03-04T06:21:40+0800
9小时前
查看轨道信息
2026-03-04T07:00:00+0800
9小时前
查看轨道信息
半长轴 7137.303km 7137.309km
偏心率 0.0095912 0.0095829
轨道倾角 98.620° 98.621°
近地点辐角 296.000° 295.909°
升交点赤经 42.018° 42.045°
平近点角 63.133° 201.147°
近地点 690.71km 690.775km
远地点 827.622km 827.569km
周期 100.014分钟 100.014分钟
每日圈数 14.397982 14.397962
详细信息
使用方式:
暂无
2D轨道图
3D轨道图
轨道高度分析图
轨道倾角分析图
轨道综合分析图
查看轨道综合分析图